Location: Shepherdstown, WV
(39.4326°N, 77.8042°W)
Time: 19:21:04
(UTC-04:00)

Vanguard 3 - Pass Details

Date: 29 July 2021
Orbit: 510 x 3260 km, 33.3° (Epoch: 22 September)

Event Time Altitude Azimuth Distance (km) Brightness Sun altitude
Rises 01:19:04 0° 282° (WNW) 7,214 12.1 -31.9°
Reaches altitude 10° 01:24:16 10° 277° (W) 6,195 11.6 -31.9°
Maximum altitude 01:41:52 45° 214° (SW) 3,470 9.8 -31.6°
Enters shadow 01:42:17 45° 211° (SSW) 3,449 9.8 -31.6°
